Weather History for KANE - August, 2013

Change the Weather History Date:

Wednesday, August 7, 2013

  Actual Average Record
Temperature  
Mean Temperature 68 °F -  
Max Temperature 75 °F 77 °F - (-1)
Min Temperature 59 °F 58 °F - (-1)
Cooling Degree Days 2    
Growing Degree Days 18 (Base 50)    
Moisture  
Dew Point 57 °F    
Average Humidity 78    
Maximum Humidity 100    
Minimum Humidity 36    
Precipitation  
Precipitation 0.00 in - - ()
Sea Level Pressure  
Sea Level Pressure 29.92 in    
Wind  
Wind Speed 5 mph (NW)    
Max Wind Speed 13 mph    
Max Gust Speed 16 mph    
Visibility 10 miles    
Events      
Averages and records for this station are not official NWS values.
T = Trace of Precipitation, MM = Missing Value Source: NWS Daily Summary

Daily Weather History Graph

Daily Weather History Graph

Search for Another Location

Airport or City:

Trip Planner

Search our weather history database for the weather conditions in past years. The results will help you decide how hot, cold, wet, or windy it might be!

Date:

Astronomy

Aug. 07, 2013 Rise Set
Actual Time 6:05 AM CDT 8:31 PM CDT
Civil Twilight 5:32 AM CDT 9:04 PM CDT
Nautical Twilight 4:50 AM CDT 9:45 PM CDT
Astronomical Twilight 4:03 AM CDT 10:31 PM CDT
Moon 6:59 AM CDT (8/7) 8:32 PM CDT (8/7)
Length of Visible Light 15h 32m
Length of Day
14h 26m
New Moon, 1% of the Moon is Illuminated
Aug 7
New Moon
Aug 14
First Quarter
Aug 20
Full
Aug 28
Last Quarter
Sep 5
New

Hourly Weather History & Observations

Time (CDT) Temp. Dew Point Humidity Pressure Visibility Wind Dir Wind Speed Gust Speed Precip Events Conditions
12:14 AM 60.8 °F 60.8 °F 100% 29.79 in 10.0 mi Calm Calm - N/A   Clear
12:34 AM 60.8 °F 59.0 °F 94% 29.79 in 10.0 mi SW 4.6 mph - N/A   Clear
12:53 AM 62.6 °F 60.8 °F 94% 29.80 in 10.0 mi WSW 3.5 mph - N/A   Clear
1:14 AM 62.6 °F 60.8 °F 94% 29.81 in 10.0 mi WSW 4.6 mph - N/A   Clear
1:34 AM 60.8 °F 59.0 °F 94% 29.81 in 10.0 mi West 4.6 mph - N/A   Clear
1:54 AM 60.8 °F 60.8 °F 100% 29.81 in 10.0 mi West 4.6 mph - N/A   Scattered Clouds
2:14 AM 62.6 °F 60.8 °F 94% 29.81 in 10.0 mi NW 5.8 mph - N/A   Mostly Cloudy
2:34 AM 62.6 °F 62.6 °F 100% 29.82 in 10.0 mi NW 5.8 mph - N/A   Overcast
2:54 AM 62.6 °F 62.6 °F 100% 29.82 in 10.0 mi NW 5.8 mph - N/A   Overcast
3:14 AM 62.6 °F 62.6 °F 100% 29.82 in 10.0 mi WNW 4.6 mph - N/A   Overcast
3:33 AM 62.6 °F 62.6 °F 100% 29.83 in 10.0 mi WNW 3.5 mph - N/A   Overcast
3:54 AM 62.6 °F 60.8 °F 94% 29.83 in 10.0 mi NW 4.6 mph - N/A   Overcast
4:14 AM 62.6 °F 60.8 °F 94% 29.84 in 10.0 mi West 4.6 mph - N/A   Overcast
4:33 AM 62.6 °F 60.8 °F 94% 29.84 in 7.0 mi WNW 4.6 mph - N/A   Overcast
4:54 AM 62.6 °F 62.6 °F 100% 29.84 in 10.0 mi NW 9.2 mph - N/A   Overcast
5:14 AM 62.6 °F 60.8 °F 94% 29.84 in 10.0 mi NNW 8.1 mph - N/A   Overcast
5:33 AM 62.6 °F 60.8 °F 94% 29.85 in 10.0 mi NNW 10.4 mph - N/A   Overcast
5:54 AM 62.6 °F 60.8 °F 94% 29.87 in 10.0 mi NNW 8.1 mph - N/A   Overcast
6:14 AM 62.6 °F 59.0 °F 88% 29.87 in 10.0 mi NNW 12.7 mph - N/A   Overcast
6:33 AM 62.6 °F 59.0 °F 88% 29.88 in 10.0 mi NNW 9.2 mph - N/A   Overcast
6:45 AM 62.6 °F 59.0 °F 88% 29.88 in 10.0 mi NNW 9.2 mph - N/A   Overcast
6:54 AM 62.6 °F 59.0 °F 88% 29.89 in 10.0 mi NNW 9.2 mph - N/A   Overcast
7:55 AM 62.6 °F 57.2 °F 82% 29.92 in 10.0 mi NW 9.2 mph - N/A   Overcast
8:45 AM 62.6 °F 57.2 °F 82% 29.93 in 10.0 mi NNW 9.2 mph - N/A   Overcast
9:45 AM 64.4 °F 57.2 °F 77% 29.95 in 10.0 mi NNW 9.2 mph - N/A   Scattered Clouds
10:45 AM 68.0 °F 55.4 °F 64% 29.97 in 10.0 mi NNW 10.4 mph 16.1 mph N/A   Scattered Clouds
11:45 AM 69.8 °F 53.6 °F 56% 29.98 in 10.0 mi NNW 11.5 mph - N/A   Scattered Clouds
12:45 PM 71.6 °F 51.8 °F 50% 29.99 in 10.0 mi NNW 11.5 mph - N/A   Clear
1:45 PM 73.4 °F 50.0 °F 44% 29.99 in 10.0 mi North 9.2 mph - N/A   Clear
2:45 PM 75.2 °F 50.0 °F 41% 29.99 in 10.0 mi NNW 10.4 mph - N/A   Partly Cloudy
3:45 PM 75.2 °F 50.0 °F 41% 29.98 in 10.0 mi NNE 8.1 mph - N/A   Scattered Clouds
4:55 PM 75.2 °F 50.0 °F 41% 29.98 in 10.0 mi North 11.5 mph - N/A   Scattered Clouds
5:50 PM 75.2 °F 46.4 °F 36% 29.88 in 10.0 mi North 11.5 mph - N/A   Scattered Clouds
6:45 PM 73.4 °F 50.0 °F 44% 29.98 in 10.0 mi North 9.2 mph - N/A   Partly Cloudy
7:45 PM 71.6 °F 51.8 °F 50% 29.99 in 10.0 mi North 4.6 mph - N/A   Partly Cloudy
8:45 PM 66.2 °F 55.4 °F 68% 30.00 in 10.0 mi NE 3.5 mph - N/A   Partly Cloudy
9:14 PM 64.4 °F 53.6 °F 68% 30.01 in 10.0 mi NNE 3.5 mph - N/A   Clear
9:34 PM 64.4 °F 53.6 °F 68% 30.02 in 10.0 mi Calm Calm - N/A   Clear
9:50 PM 62.6 °F 53.6 °F 72% 30.02 in 10.0 mi Calm Calm - N/A   Clear
9:54 PM 60.8 °F 53.6 °F 77% 30.02 in 10.0 mi Calm Calm - N/A   Clear
10:13 PM 62.6 °F 53.6 °F 72% 30.03 in 10.0 mi Calm Calm - N/A   Clear
10:34 PM 60.8 °F 53.6 °F 77% 30.03 in 10.0 mi Calm Calm - N/A   Clear
10:54 PM 60.8 °F 53.6 °F 77% 30.03 in 10.0 mi Calm Calm - N/A   Clear
11:13 PM 60.8 °F 53.6 °F 77% 30.03 in 10.0 mi Calm Calm - N/A   Clear
11:34 PM 60.8 °F 53.6 °F 77% 30.03 in 10.0 mi Calm Calm - N/A   Clear
11:54 PM 59.0 °F 53.6 °F 82% 30.03 in 10.0 mi Calm Calm - N/A   Clear